{"data":{"norad_id":63096,"intl_designator":"2025-037V","name":"STARLINK-32911","alt_names":[],"object_type":"PAYLOAD","status":"ACTIVE","operator":null,"country":"US","launch_date":"2025-02-23","launch_site_code":"AFWTR","launch_vehicle":null,"mission":null,"orbit_class":"UNKNOWN","rcs_meters":null,"size_class":null,"mass_kg":null,"dimensions":null,"purposes":["comms"],"wikipedia_slug":null,"has_3d_model":false,"image_url":null,"decayed_at":null,"tle_current":{"epoch":"2026-05-25T02:30:52.293024Z","epoch_age_seconds":59957,"freshness":"FRESH","line1":"1 63096U 25037V   26145.10477191  .00004201  00000+0  35951-3 0  9991","line2":"2 63096  70.0004 161.9694 0002772 255.9199 104.1652 14.98346271 70035","mean_motion":14.98346271,"eccentricity":0.0002772,"inclination_deg":70.0004,"raan_deg":161.9694,"arg_perigee_deg":255.9199,"mean_anomaly_deg":104.1652,"bstar":0.00035951,"rev_number":7003,"period_min":96.105955470423,"perigee_km":570.07899515275,"apogee_km":573.93215419615,"semimajor_km":6950.1425746745,"source":"CELESTRAK","updated_at":"2026-05-25T13:38:19.881138Z"}}}